G4SEJ Weather Reports


time (UTC)temp
C
wind
direction
speed
KPH
gust
KPH
rain 1hr
cm
rain 24hr
cm
rain mn
cm
humidity
%
barometer
mb
20260506155559 11 23 4.8 11.3 0.00 0.03 0.03 83 1011.6
20260506155100 11 77 4.8 8.0 0.00 0.03 0.03 83 1011.6
20260506154600 11 50 4.8 9.7 0.00 0.03 0.03 83 1011.5
20260506154100 11 66 3.2 9.7 0.00 0.03 0.03 83 1011.6
20260506153601 11 98 3.2 11.3 0.00 0.03 0.03 83 1011.6
20260506153055 11 40 4.8 11.3 0.03 0.03 0.03 83 1011.5
20260506152557 11 71 4.8 11.3 0.03 0.03 0.03 83 1011.5
20260506152056 10 31 4.8 11.3 0.03 0.03 0.03 84 1011.5
20260506151556 11 75 4.8 9.7 0.03 0.03 0.03 85 1011.5
20260506151055 10 62 4.8 9.7 0.03 0.03 0.03 84 1011.4
20260506150555 10 68 4.8 11.3 0.03 0.03 0.03 85 1011.4
20260506150059 10 12 4.8 12.9 0.03 0.03 0.03 86 1011.4
20260506144050 10 27 4.8 11.3 0.03 0.03 0.03 88 1011.4
20260506143543 10 44 6.4 12.9 0.03 0.03 0.03 87 1011.5
20260506143041 11 62 6.4 12.9 0.00 0.00 0.00 86 1011.5
20260506142541 11 71 4.8 16.1 0.00 0.00 0.00 86 1011.4
20260506141539 11 67 6.4 16.1 0.00 0.00 0.00 83 1011.4
20260506140535 11 332 6.4 4.8 0.00 0.00 0.00 82 1011.3
20260506134704 11 105 8.0 17.7 0.00 0.00 0.00 81 1011.4
20260506134205 12 68 6.4 17.7 0.00 0.00 0.00 79 1011.4
20260506133704 12 31 4.8 12.9 0.00 0.00 0.00 78 1011.3
20260506132206 12 62 4.8 12.9 0.00 0.00 0.00 75 1011.2
20260506130700 12 51 6.4 16.1 0.00 0.00 0.00 74 1011.3
20260506125659 13 65 4.8 12.9 0.00 0.00 0.00 71 1011.2
20260506125200 13 59 4.8 12.9 0.00 0.00 0.00 70 1011.2
20260506124700 13 33 4.8 12.9 0.00 0.00 0.00 71 1011.2
20260506124158 13 7 4.8 12.9 0.00 0.00 0.00 70 1011.2
20260506123658 13 56 4.8 11.3 0.00 0.00 0.00 70 1011.1
20260506123154 13 56 3.2 11.3 0.00 0.00 0.00 69 1011.2
20260506122656 13 84 3.2 11.3 0.00 0.00 0.00 71 1011.2
20260506122153 13 82 3.2 11.3 0.00 0.00 0.00 69 1011.2
20260506121150 13 269 3.2 9.7 0.00 0.00 0.00 71 1011.1
20260506120651 13 85 3.2 8.0 0.00 0.00 0.00 71 1011.1
20260506120144 13 276 3.2 8.0 0.00 0.00 0.00 72 1011.1
20260506115644 12 251 1.6 9.7 0.00 0.00 0.00 73 1011.1
20260506115145 12 307 1.6 9.7 0.00 0.00 0.00 73 1011.2
20260506114644 12 37 3.2 9.7 0.00 0.00 0.00 74 1011.2
20260506114145 12 357 4.8 9.7 0.00 0.00 0.00 74 1011.2
20260506113145 12 50 3.2 11.3 0.00 0.00 0.00 74 1011.1
20260506112641 12 44 3.2 9.7 0.00 0.00 0.00 74 1011.2
20260506112141 12 90 3.2 9.7 0.00 0.00 0.00 74 1011.2
20260506111638 12 9 3.2 9.7 0.00 0.00 0.00 75 1011.2
20260506111139 12 77 3.2 4.8 0.00 0.00 0.00 75 1011.2
20260506105714 12 297 4.8 14.5 0.00 0.00 0.00 74 1011.2
20260506105214 12 25 4.8 14.5 0.00 0.00 0.00 74 1011.2
20260506104715 12 67 4.8 9.7 0.00 0.00 0.00 74 1011.2
20260506104213 12 20 4.8 14.5 0.00 0.00 0.00 74 1011.2
20260506103713 12 34 6.4 16.1 0.00 0.00 0.00 73 1011.2
20260506103207 12 47 4.8 16.1 0.00 0.00 0.00 72 1011.3
20260506102707 12 39 6.4 14.5 0.00 0.00 0.00 73 1011.3
20260506102207 12 321 6.4 17.7 0.00 0.00 0.00 74 1011.2
20260506101707 12 47 6.4 17.7 0.00 0.00 0.00 73 1011.2
20260506100214 12 80 6.4 16.1 0.00 0.00 0.00 75 1011.2
20260506095659 12 30 4.8 16.1 0.00 0.00 0.00 77 1011.1
20260506095201 11 330 4.8 12.9 0.00 0.00 0.00 77 1011.1
20260506094701 11 355 4.8 11.3 0.00 0.00 0.00 78 1011.2
20260506093700 11 79 4.8 11.3 0.00 0.00 0.00 79 1011.2
20260506093157 11 80 4.8 19.3 0.00 0.00 0.00 80 1011.2
20260506092657 11 61 4.8 19.3 0.00 0.00 0.00 80 1011.2
20260506092156 11 64 4.8 16.1 0.00 0.00 0.00 79 1011.1
20260506091656 11 5 4.8 17.7 0.00 0.00 0.00 80 1011.1
20260506090657 11 237 4.8 12.9 0.00 0.00 0.00 82 1011.0
20260506085650 10 261 4.8 12.9 0.00 0.00 0.00 82 1010.9
20260506085151 10 158 3.2 12.9 0.00 0.00 0.00 82 1010.9
20260506084151 10 345 4.8 17.7 0.00 0.00 0.00 82 1010.9
20260506083650 10 162 4.8 17.7 0.00 0.00 0.00 82 1010.9
20260506082648 10 20 4.8 12.9 0.00 0.00 0.00 83 1010.8
20260506082149 10 339 3.2 12.9 0.00 0.00 0.00 83 1010.8
20260506081649 10 124 3.2 14.5 0.00 0.00 0.00 83 1010.8
20260506081147 10 34 3.2 16.1 0.00 0.00 0.00 84 1010.9
20260506080649 10 47 3.2 16.1 0.00 0.00 0.00 84 1010.9
20260506080146 10 20 3.2 14.5 0.00 0.00 0.00 84 1010.8
20260506073137 10 296 3.2 12.9 0.00 0.00 0.00 85 1010.7
20260506072631 10 265 3.2 16.1 0.00 0.00 0.00 85 1010.7
20260506072127 10 261 4.8 16.1 0.00 0.00 0.00 85 1010.6
20260506071629 10 272 4.8 12.9 0.00 0.00 0.00 84 1010.5
20260506070627 10 274 3.2 11.3 0.00 0.00 0.00 84 1010.5
20260506061123 9 311 4.8 19.3 0.00 0.00 0.00 84 1010.3
20260506060617 9 61 6.4 19.3 0.00 0.00 0.00 85 1010.3
20260506060118 9 63 6.4 16.1 0.00 0.00 0.00 85 1010.3
20260506051115 8 287 6.4 22.5 0.00 0.00 0.00 86 1010.1
20260506050113 8 53 4.8 12.9 0.00 0.00 0.00 85 1010.2
20260506045109 9 311 3.2 11.3 0.00 0.00 0.00 85 1010.3
20260506044609 9 21 3.2 12.9 0.00 0.00 0.00 84 1010.3
20260506043609 9 84 4.8 14.5 0.00 0.00 0.00 84 1010.2
20260506043109 9 66 4.8 14.5 0.00 0.00 0.00 84 1010.2
20260506042602 9 208 4.8 9.7 0.00 0.00 0.00 84 1010.2
20260506042102 9 87 4.8 14.5 0.00 0.00 0.00 84 1010.3
20260506041602 9 16 4.8 14.5 0.00 0.00 0.00 84 1010.2
20260506041101 9 40 4.8 12.9 0.00 0.00 0.00 85 1010.3
20260506040106 9 28 4.8 16.1 0.00 0.00 0.00 85 1010.3
20260506035602 9 29 4.8 16.1 0.00 0.00 0.00 85 1010.3
20260506035100 9 4 3.2 11.3 0.00 0.00 0.00 86 1010.4
20260506034557 9 338 3.2 9.7 0.00 0.00 0.00 86 1010.4
20260506033556 9 326 4.8 11.3 0.00 0.00 0.00 86 1010.4
20260506032555 9 24 4.8 11.3 0.00 0.00 0.00 86 1010.5
20260506032106 9 6 3.2 11.3 0.00 0.00 0.00 87 1010.5
20260506031600 9 86 3.2 9.7 0.00 0.00 0.00 87 1010.5
20260506031049 9 33 4.8 14.5 0.00 0.00 0.00 87 1010.5
20260506030548 9 53 4.8 14.5 0.00 0.00 0.00 87 1010.6
20260506030100 9 19 4.8 19.3 0.00 0.00 0.00 87 1010.6
20260506024548 9 48 3.2 16.1 0.00 0.00 0.00 88 1010.7
20260506024041 9 56 4.8 11.3 0.00 0.00 0.00 88 1010.7
20260506023042 10 315 3.2 12.9 0.00 0.00 0.00 88 1010.8
20260506022555 10 322 4.8 12.9 0.00 0.00 0.00 88 1010.8
20260506022043 10 40 4.8 12.9 0.00 0.00 0.00 88 1010.8
20260506021542 10 257 4.8 12.9 0.00 0.00 0.00 88 1010.8
20260506020551 10 70 4.8 14.5 0.00 0.00 0.00 87 1010.8
20260506020036 10 300 4.8 14.5 0.00 0.00 0.00 87 1010.8
20260506015536 10 63 4.8 14.5 0.00 0.00 0.00 87 1010.8
20260506015036 10 130 4.8 17.7 0.00 0.00 0.00 86 1010.8
20260506014536 10 43 6.4 17.7 0.00 0.00 0.00 85 1010.8
20260506014031 10 66 8.0 17.7 0.00 0.00 0.00 85 1010.8
20260506013031 10 57 6.4 17.7 0.00 0.00 0.00 85 1010.8
20260506012533 10 35 6.4 17.7 0.00 0.00 0.00 84 1010.9
20260506012030 10 49 8.0 19.3 0.00 0.00 0.00 85 1010.9
20260506011024 10 44 6.4 17.7 0.00 0.00 0.00 85 1010.9
20260506010524 10 35 6.4 16.1 0.00 0.00 0.00 84 1011.0
20260506010025 10 79 6.4 16.1 0.00 0.00 0.00 84 1011.0
20260506005525 10 28 8.0 16.1 0.00 0.00 0.00 84 1011.0
20260506005024 10 39 9.7 19.3 0.00 0.00 0.00 83 1011.0
20260506004523 10 45 9.7 19.3 0.00 0.00 0.00 83 1011.0
20260506004019 10 64 8.0 19.3 0.00 0.00 0.00 83 1011.1
20260506003018 10 57 8.0 19.3 0.00 0.00 0.00 84 1011.1
20260506002518 10 56 8.0 17.7 0.00 0.00 0.00 84 1011.1
20260506002018 10 63 8.0 17.7 0.00 0.00 0.00 84 1011.1
20260506001518 10 106 8.0 19.3 0.00 0.00 0.00 84 1011.0
20260506001012 10 18 8.0 19.3 0.00 0.00 0.00 83 1011.1
20260506000012 10 53 8.0 27.4 0.00 0.00 0.00 83 1011.2
20260505235012 10 78 6.4 19.3 0.00 0.00 0.00 83 1011.1
20260505234512 10 61 6.4 17.7 0.00 0.00 0.00 84 1011.2
20260505234007 10 81 9.7 19.3 0.00 0.00 0.00 84 1011.2
20260505233506 10 42 8.0 19.3 0.00 0.00 0.00 83 1011.2
20260505233006 10 79 8.0 19.3 0.00 0.00 0.00 83 1011.1
20260505232506 10 327 8.0 19.3 0.00 0.00 0.00 84 1011.1
20260505232006 10 84 8.0 20.9 0.00 0.00 0.00 84 1011.2
20260505231506 11 80 8.0 20.9 0.00 0.00 0.00 85 1011.1
20260505231000 11 40 8.0 19.3 0.00 0.00 0.00 85 1011.1
20260505230500 11 72 9.7 19.3 0.00 0.00 0.00 85 1011.1
20260505230001 11 69 8.0 19.3 0.00 0.00 0.00 86 1011.2
20260505225500 11 64 8.0 19.3 0.00 0.00 0.00 86 1011.2
20260505225000 11 66 8.0 19.3 0.00 0.00 0.00 87 1011.2
20260505223955 10 60 11.3 24.1 0.00 0.00 0.00 86 1011.3
20260505222953 10 40 11.3 22.5 0.00 0.00 0.00 86 1011.2
20260505222454 10 8 11.3 24.1 0.00 0.00 0.00 86 1011.2
20260505221954 10 49 11.3 24.1 0.00 0.00 0.00 86 1011.3
20260505221454 10 49 11.3 22.5 0.00 0.00 0.00 86 1011.2
20260505220451 11 65 11.3 22.5 0.00 0.00 0.00 87 1011.3
20260505215952 11 39 11.3 24.1 0.00 0.00 0.00 87 1011.3
20260505215452 11 55 12.9 25.7 0.00 0.00 0.00 86 1011.2
20260505214452 11 75 9.7 19.3 0.00 0.00 0.00 84 1011.2
20260505213446 11 67 9.7 19.3 0.00 0.00 0.00 82 1011.2
20260505212946 11 68 9.7 19.3 0.00 0.00 0.00 80 1011.2
20260505211446 11 37 11.3 22.5 0.00 0.00 0.00 76 1011.3
20260505210946 10 49 11.3 22.5 0.00 0.00 0.00 77 1011.3
20260505210439 10 49 9.7 22.5 0.00 0.00 0.00 78 1011.3
20260505205441 10 58 9.7 17.7 0.00 0.00 0.00 80 1011.2
20260505204940 10 74 9.7 12.9 0.00 0.00 0.00 82 1011.2
20260505203528 10 77 9.7 19.3 0.00 0.00 0.00 83 1011.2
20260505202025 10 56 8.0 14.5 0.00 0.00 0.00 85 1011.1
20260505201525 10 56 8.0 14.5 0.00 0.00 0.00 85 1011.0
20260505201024 10 59 8.0 14.5 0.00 0.00 0.00 85 1011.0
20260505200524 10 46 6.4 16.1 0.00 0.00 0.00 85 1010.9
20260505200023 10 49 8.0 16.1 0.00 0.00 0.00 85 1010.9
20260505195522 10 47 8.0 14.5 0.00 0.00 0.00 84 1010.9
20260505195017 10 59 8.0 14.5 0.00 0.00 0.00 84 1010.8
20260505194516 10 74 6.4 14.5 0.00 0.00 0.00 84 1010.6
20260505194017 10 346 8.0 16.1 0.00 0.00 0.00 84 1010.6
20260505193517 11 72 8.0 17.7 0.00 0.00 0.00 84 1010.6
20260505193017 11 69 8.0 17.7 0.00 0.00 0.00 84 1010.7
20260505192517 11 62 9.7 16.1 0.00 0.00 0.00 83 1010.6
20260505191514 11 48 8.0 17.7 0.00 0.00 0.00 82 1010.5
20260505191010 11 56 8.0 14.5 0.00 0.00 0.00 83 1010.5
20260505190508 11 51 8.0 16.1 0.00 0.00 0.00 82 1010.4
20260505190002 11 57 9.7 19.3 0.00 0.00 0.00 81 1010.4
20260505185500 11 94 9.7 17.7 0.00 0.00 0.00 80 1010.4
20260505184954 11 41 8.0 16.1 0.00 0.00 0.00 81 1010.4
20260505184447 11 43 8.0 16.1 0.00 0.00 0.00 80 1010.4
20260505183944 11 34 8.0 16.1 0.00 0.00 0.00 79 1010.4
20260505183440 11 58 8.0 14.5 0.00 0.00 0.00 79 1010.4
20260505182439 12 49 9.7 17.7 0.00 0.00 0.00 78 1010.4
20260505181439 12 49 6.4 12.9 0.00 0.00 0.00 77 1010.3
20260505180938 12 67 6.4 12.9 0.00 0.00 0.00 77 1010.3
20260505175940 12 66 6.4 12.9 0.00 0.00 0.00 77 1010.4
20260505175440 12 60 4.8 9.7 0.00 0.00 0.00 78 1010.3
20260505173934 12 63 8.0 14.5 0.00 0.00 0.00 78 1010.3
20260505173434 12 47 8.0 14.5 0.00 0.00 0.00 78 1010.3
20260505172935 12 46 6.4 16.1 0.00 0.00 0.00 78 1010.3
20260505172436 12 59 8.0 16.1 0.00 0.00 0.00 78 1010.3
20260505171931 12 94 8.0 16.1 0.00 0.00 0.00 78 1010.2
20260505170931 12 41 8.0 16.1 0.00 0.00 0.00 77 1010.3
20260505170431 12 60 8.0 14.5 0.00 0.00 0.00 77 1010.3
20260505165931 12 51 8.0 16.1 0.00 0.00 0.00 75 1010.3
20260505165432 12 41 8.0 16.1 0.00 0.00 0.00 76 1010.3
20260505164926 12 35 8.0 16.1 0.00 0.00 0.00 75 1010.4
20260505164427 12 95 6.4 12.9 0.00 0.00 0.00 77 1010.4
20260505163920 12 60 8.0 14.5 0.00 0.00 0.00 77 1010.3
20260505163420 12 105 8.0 16.1 0.00 0.00 0.00 77 1010.4
20260505162918 12 55 9.7 16.1 0.00 0.00 0.00 77 1010.4
20260505161914 12 57 6.4 17.7 0.00 0.00 0.00 75 1010.4
20260505161415 12 62 8.0 16.1 0.00 0.00 0.00 77 1010.3
20260505160912 12 75 9.7 16.1 0.00 0.00 0.00 77 1010.3